{"data":{"norad_id":33436,"intl_designator":"2008-057A","name":"ASTRA 1M","alt_names":[],"object_type":"PAYLOAD","status":"ACTIVE","operator":null,"country":"SES","launch_date":"2008-11-05","launch_site_code":"TYMSC","launch_vehicle":null,"mission":null,"orbit_class":"UNKNOWN","rcs_meters":10.0237,"size_class":null,"mass_kg":null,"dimensions":null,"purposes":["comms"],"wikipedia_slug":null,"has_3d_model":false,"image_url":null,"decayed_at":null,"tle_current":{"epoch":"2026-05-25T03:50:09.230784Z","epoch_age_seconds":68146,"freshness":"FRESH","line1":"1 33436U 08057A   26145.15982906  .00000119  00000+0  00000+0 0  9996","line2":"2 33436   0.2389  81.9435 0004831  13.6200 224.1446  1.00275692 45500","mean_motion":1.00275692,"eccentricity":0.0004831,"inclination_deg":0.2389,"raan_deg":81.9435,"arg_perigee_deg":13.62,"mean_anomaly_deg":224.1446,"bstar":0,"rev_number":4550,"period_min":1436.0409499842,"perigee_km":35765.130469924,"apogee_km":35805.868975726,"semimajor_km":42163.636722825,"source":"CELESTRAK","updated_at":"2026-05-25T13:38:14.501843Z"}}}